Regional Weather Roundup
Issued by NWS Tiyan, Guam

Home | Current Version | Previous Version | Text Only | Print | Product List | Glossary On
Versions: 1 2 3 4 5 6 7 8 9 10 11 12 13 14 15 16 17 18 19 20 21 22 23 24 25 26 27 28 29 30 31 32 33 34 35 36 37 38 39 40 41 42 43 44 45 46 47 48 49 50
000
ASGM40 PGUM 281012
RWRGUM
WEATHER ROUNDUP FOR THE MARIANAS
NATIONAL WEATHER SERVICE TIYAN GU
800 PM CHST TUE FEB 28 2017

GUZ001>004-281100-
MARIANA ISLANDS-

CITY           SKY/WX    TMP DP  RH WIND       PRES   REMARKS
GUAM AIRPORT   PTCLDY    81  75  83 NE15G22   29.88S
ANDERSEN AFB   MOCLDY    79  73  83 E16       29.90R
ROTA AIRPORT   MOCLDY    77  73  88 E14       29.89R
TINIAN AP      MOCLDY    79  72  78 NE14      29.88R
SAIPAN AP      CLOUDY    79  73  83 NE13      29.90R

$$




USA.gov is the U.S. government's official web portal to all federal, state and local government web resources and services.